Home   Weather   Güssing   Past weeks

Flag for Austria Past Weather in Güssing, Burgenland, Austria — Yesterday and Last 2 Weeks

Now
51 °F

Cool.


Feels Like: 51 °F
Forecast: 57 / 79 °F
Wind: No wind

Location: Murska Sobota

Current Time: Sep 1, 2016 at 5:56:03 AM

Latest Report: Sep 1, 2016 at 5:00 AM


Visibility: N/A

Pressure: 30.19 "Hg

Humidity: 95%

Dew Point: 50 °F

Location of GüssingLocation

Past Weather in Güssing — Graph

°F

Güssing Temperature Yesterday

Maximum temperature yesterday: 78 °F (at 4:00 PM)
Minimum temperature yesterday: 57 °F (at 7:00 AM)
Average temperature yesterday: 67 °F

High & Low Weather Summary for the Past Weeks

 TemperatureHumidityPressure
High85 °F (Aug 29, 2:00 PM)100% (Aug 20, 5:00 AM)30.32 "Hg (Aug 20, 5:00 AM)
Low53 °F (Sep 1, 3:00 AM)40% (Aug 26, 6:00 PM)29.83 "Hg (Aug 18, 6:00 PM)
Average67 °F77%30.10 "Hg
* Reported Aug 17 4:00 AM — Sep 1 4:00 AM, Güssing, Weather by CustomWeather, © 2016

Note: Actual official high and low records may vary slightly from our data, if they occured in-between our weather recording intervals... More about our weather records

Advertising

Güssing Weather History for the Previous 24 Hours

Scroll right to see more
 ConditionsComfort  
Time TempWeatherWind HumidityBarometerVisibility
4:00 AM
Thu, Sep 1
53 °FCool.N/A96%N/AN/A
3:00 AM53 °FCool.N/A94%N/AN/A
2:00 AM54 °FCool.N/A93%N/AN/A
1:00 AM55 °FCool.No wind92%30.19 "HgN/A
12:00 AM56 °FCool.1 mph91%30.19 "HgN/A
11:00 PM
Wed, Aug 31
58 °FCool.1 mph88%30.19 "HgN/A
10:00 PM60 °FCool.No wind82%30.19 "HgN/A
9:00 PM63 °FMild.1 mph77%30.18 "HgN/A
8:00 PM69 °FPassing clouds.1 mph64%30.15 "Hg31 mi
7:00 PM75 °FMild.1 mph49%30.14 "HgN/A
6:00 PM77 °FWarm.2 mph43%30.14 "HgN/A
5:00 PM78 °FWarm.2 mph43%30.15 "HgN/A
4:00 PM78 °FWarm.1 mph43%30.16 "HgN/A
3:00 PM78 °FPassing clouds.1 mph42%30.17 "Hg31 mi
2:00 PM77 °FPassing clouds.1 mph43%30.20 "Hg31 mi
1:00 PM76 °FMild.2 mph48%30.21 "HgN/A
12:00 PM74 °FMild.2 mph48%30.22 "HgN/A
11:00 AM72 °FMild.1 mph50%30.23 "HgN/A
9:00 AM67 °FMild.1 mph58%30.24 "HgN/A
8:00 AM61 °FSunny.1 mph88%N/A31 mi
7:00 AM57 °FSunny.1 mph86%30.24 "Hg31 mi
6:00 AM58 °FCool.1 mph82%30.23 "HgN/A
5:00 AM59 °FCool.1 mph80%30.24 "HgN/A
Weather by CustomWeather, © 2016

See weather overviewHow to use our weather pages